Wind_Speed
38 38 38 39 39 40 41 42 44 44 44 43 43 44 44 43 43 42 41 41 40 39 37 35 33 30 30 28 26 23 24 25 25 27 27 28 30 31 34 37 40 41 41 44
38 38 39 40 39 40 41 42 43 44 44 43 44 45 45 44 43 43 42 40 39 38 37 35 32 29 29 27 24 22 22 23 25 26 27 28 28 30 33 36 38 39 40 43
40 39 41 41 39 40 41 42 43 44 45 45 45 45 45 44 43 43 42 41 40 38 37 34 31 28 27 25 23 22 21 23 24 25 26 27 29 30 32 34 36 38 39 40
43 43 43 42 42 41 42 43 44 45 45 45 45 45 45 45 44 43 42 41 39 38 36 33 30 28 27 25 24 23 21 22 23 24 24 25 27 29 30 32 34 35 36 38
45 46 46 43 43 42 43 43 44 45 45 46 46 44 43 44 44 43 42 41 39 38 35 31 29 27 26 24 24 24 23 22 23 22 23 25 27 30 31 32 31 32 35 37
47 48 48 46 45 44 45 45 44 45 45 45 46 45 42 42 43 42 42 41 39 37 35 31 28 27 26 24 24 24 23 23 23 23 24 26 26 29 32 32 32 33 35 35
47 48 48 47 46 45 46 47 47 46 46 46 46 45 44 43 43 42 42 40 38 37 35 32 29 28 27 25 23 23 23 22 22 23 24 25 26 29 30 31 32 33 34 36
46 48 48 47 47 46 47 47 47 46 46 46 45 45 44 43 43 43 41 40 38 36 34 32 29 28 27 26 25 24 23 23 23 24 25 26 26 28 29 29 30 32 34 35
47 47 47 47 47 47 47 47 46 46 46 46 45 44 44 43 43 42 41 39 37 36 34 30 28 27 26 26 26 25 24 23 23 23 24 25 26 28 29 30 31 32 32 33
47 46 46 47 47 47 47 47 46 45 45 45 45 44 43 42 42 41 40 38 36 35 33 30 28 27 27 26 25 24 23 24 24 24 24 25 26 27 29 30 30 31 31 32
47 46 46 46 46 46 45 45 45 44 44 45 44 43 43 42 42 40 38 36 35 34 32 29 29 28 27 26 25 23 22 23 24 24 24 26 27 28 28 29 31 31 30 29
46 45 46 45 45 45 44 44 44 44 44 44 44 43 43 42 41 40 38 35 34 33 31 29 28 27 26 25 24 22 22 23 24 24 24 25 27 28 28 28 30 30 31 30
45 45 45 45 44 44 44 43 43 43 43 43 43 43 43 42 41 39 37 34 33 32 30 28 26 25 24 23 22 21 21 22 23 23 23 23 25 27 27 28 29 31 32 32
43 44 44 43 43 43 43 42 42 42 42 42 42 42 42 41 39 37 35 32 31 29 27 25 24 23 22 22 21 21 21 21 22 22 22 23 23 24 26 27 29 30 31 33
42 42 42 42 42 42 41 41 40 40 40 40 41 40 39 38 36 34 32 30 28 26 24 23 22 22 21 20 20 21 21 21 21 21 21 22 22 24 25 26 28 30 31 32
40 40 41 40 40 39 39 39 39 38 38 39 38 38 36 35 33 31 30 28 26 24 23 21 20 19 19 19 19 20 21 21 22 22 22 23 23 24 26 27 28 29 31 32
38 38 38 37 37 37 37 37 37 36 36 36 36 35 33 32 31 30 28 27 25 23 21 19 18 17 18 18 18 19 20 21 22 22 23 23 23 24 26 27 28 28 30 31
36 35 35 35 35 35 34 34 34 35 35 35 34 33 31 30 29 28 27 25 23 21 20 18 17 17 17 18 18 18 19 19 21 22 22 23 24 24 26 27 28 28 29 30
34 34 33 33 32 32 32 33 33 34 34 34 33 32 31 29 28 27 25 23 21 19 18 17 16 16 16 17 18 19 19 19 20 21 22 23 25 26 25 26 27 28 29 30
32 32 32 32 32 32 32 32 33 34 33 33 32 31 30 28 27 25 23 21 20 18 17 16 16 16 16 17 18 19 19 20 20 22 22 23 24 25 26 26 27 28 29 29
30 30 31 30 30 30 31 32 33 33 33 32 31 30 28 27 25 23 22 21 20 18 17 16 16 16 16 17 18 19 19 20 21 21 22 22 23 24 25 26 26 28 29 28
30 30 30 29 30 31 32 33 33 33 31 30 29 28 27 26 24 23 21 20 19 17 16 16 16 16 16 16 17 18 19 20 20 20 20 21 22 23 24 25 26 26 27 28
29 29 30 30 31 32 33 33 33 32 30 29 28 27 26 25 23 22 20 19 18 16 15 16 16 16 16 16 17 17 18 19 20 20 20 21 22 23 23 24 25 25 25 27
29 30 31 31 32 33 33 32 32 30 29 28 27 26 25 23 22 20 19 18 17 16 15 15 16 16 17 17 17 17 18 19 20 20 20 21 22 22 23 23 24 24 25 25
30 31 31 32 32 33 32 31 30 29 28 27 26 25 24 22 21 19 18 17 16 16 15 15 15 15 16 17 18 19 20 20 20 20 20 21 22 22 22 23 24 24 24 25
30 31 32 32 32 31 30 29 28 27 27 26 25 24 23 21 20 19 18 16 15 15 15 14 14 15 15 16 18 19 20 21 21 20 21 21 22 23 22 22 23 23 24 24
30 31 31 31 31 30 29 28 27 26 26 25 24 23 22 21 19 18 17 16 15 15 14 14 14 14 15 17 18 19 20 21 21 21 21 21 22 23 22 22 22 22 23 23
Wind_Direction
302 303 304 305 306 307 309 311 311 314 314 316 315 315 316 315 315 315 314 313 312 311 307 305 303 298 294 290 283 271 265 259 251 245 242 240 235 234 230 225 223 224 223 220
299 301 302 302 305 308 309 309 310 311 313 314 314 315 315 315 314 313 313 312 311 311 307 304 302 298 294 289 285 277 268 257 249 245 242 240 236 233 230 226 225 226 223 220
298 300 300 302 307 306 307 308 308 310 313 313 313 314 314 314 313 313 312 311 310 310 307 302 299 296 291 284 282 277 268 258 251 247 243 241 238 231 227 224 225 223 222 221
297 298 299 306 305 306 305 306 307 309 311 312 313 314 313 313 312 312 312 311 311 309 305 302 297 293 287 282 277 276 270 258 251 247 244 241 235 228 222 220 221 220 221 220
295 297 299 304 306 305 305 306 308 309 310 311 312 312 312 311 311 311 311 311 311 308 305 301 295 291 287 281 276 273 267 256 252 251 245 240 236 227 223 221 221 220 219 219
294 296 300 304 304 304 304 305 308 308 309 310 311 311 312 310 309 309 310 309 308 305 302 299 293 288 285 282 276 270 262 256 252 249 242 237 236 232 227 225 224 222 218 218
294 296 299 302 303 303 303 306 306 307 308 310 311 311 310 309 308 309 309 308 306 303 301 297 291 285 282 279 274 268 260 254 254 248 242 239 237 232 228 228 226 221 217 218
293 295 299 302 301 301 302 302 304 305 307 309 310 309 308 307 308 308 308 306 304 302 299 296 291 286 280 276 272 267 260 253 251 248 243 239 235 229 227 226 223 219 218 219
290 294 297 299 300 299 299 300 302 303 305 307 308 308 307 307 307 307 307 306 302 300 298 293 289 285 280 273 269 266 258 251 249 246 239 235 231 226 225 224 220 218 218 219
289 292 295 296 297 297 297 299 300 301 303 305 307 307 307 307 307 306 306 304 301 298 296 292 287 283 280 272 267 264 254 247 244 240 234 231 228 224 221 220 219 216 216 216
288 291 292 294 295 296 297 298 299 300 302 304 306 307 306 305 305 305 305 302 299 297 295 291 287 284 278 272 267 260 249 242 238 236 232 228 224 221 219 218 217 214 213 212
288 290 291 293 295 295 296 296 298 299 301 303 304 305 305 304 304 304 303 300 297 294 293 290 286 283 278 270 263 255 245 238 235 233 231 228 222 219 219 216 215 213 212 209
286 288 289 292 294 294 295 297 298 300 301 302 303 304 304 303 304 303 302 299 296 294 292 289 285 280 275 268 258 250 242 236 234 231 228 224 220 219 217 217 216 213 211 209
284 286 288 291 293 294 295 297 298 300 301 302 303 304 303 304 304 303 301 299 296 293 290 287 282 278 272 263 253 244 238 232 229 226 224 221 219 219 217 215 212 210 210 210
284 286 288 290 292 294 295 296 297 299 301 302 302 303 303 303 303 302 300 299 296 292 289 284 279 275 269 258 247 239 235 231 229 226 223 219 218 217 215 214 212 212 210 210
283 285 289 291 293 294 294 295 297 299 301 302 302 303 302 302 302 301 299 298 295 292 287 282 276 270 262 252 243 236 233 230 227 223 221 220 219 217 216 214 211 211 209 208
285 287 289 291 293 293 294 295 297 299 300 302 303 302 301 301 301 300 298 297 294 291 286 279 270 264 257 248 238 233 231 228 225 224 223 223 220 217 215 212 210 209 209 207
286 288 290 291 293 293 294 296 298 300 301 302 303 302 300 300 300 299 297 296 293 288 283 275 265 258 251 242 237 234 229 227 227 226 224 222 218 216 214 210 207 206 207 206
286 288 289 291 293 294 295 296 297 299 300 301 302 301 300 299 297 296 295 295 292 285 278 270 262 254 249 245 240 234 230 229 228 224 221 219 217 216 212 209 207 205 203 203
287 287 289 290 292 294 295 296 297 298 299 300 300 300 299 298 296 293 292 292 289 281 272 265 257 251 248 244 239 234 231 229 224 220 218 216 216 214 209 207 206 204 201 200
286 288 289 291 292 293 295 296 297 298 298 298 299 299 297 295 295 293 289 287 284 277 268 261 255 249 246 242 236 232 228 223 220 219 216 213 211 208 205 204 203 202 202 201
286 288 289 291 292 294 295 296 297 297 297 297 297 297 295 293 292 291 288 285 280 273 264 258 253 246 240 236 231 227 223 217 215 214 211 208 207 204 202 203 202 200 201 202
286 287 289 291 293 294 295 297 297 296 295 294 295 295 294 291 290 288 286 282 278 270 261 254 248 244 237 232 228 223 217 210 206 205 205 205 203 201 201 202 200 200 200 202
287 288 289 291 293 294 296 297 296 294 293 292 292 293 292 290 287 286 283 278 271 264 258 251 246 240 232 228 225 219 210 205 201 200 200 200 199 199 200 200 199 198 199 201
287 289 289 291 293 295 295 295 294 293 291 290 291 291 291 289 285 281 278 273 265 257 252 247 241 235 229 223 217 209 203 199 196 198 199 197 196 196 196 196 195 195 197 197
287 288 290 292 294 294 294 294 292 291 289 289 288 288 288 286 281 276 273 266 258 252 249 243 235 229 222 215 210 203 199 197 194 195 195 194 193 193 193 193 193 195 196 195
287 289 291 292 294 294 293 292 290 289 288 288 287 286 285 282 278 272 266 258 251 245 242 236 227 219 212 207 205 201 197 195 194 193 193 193 192 190 190 190 191 191 193 193
Height
5613 5608 5604 5600 5596 5590 5584 5579 5572 5568 5562 5558 5552 5546 5540 5533 5528 5522 5516 5510 5505 5499 5494 5489 5485 5480 5477 5474 5472 5471 5470 5471 5472 5474 5476 5479 5483 5487 5491 5496 5502 5509 5516 5524
5604 5601 5595 5592 5589 5583 5577 5571 5564 5559 5555 5550 5543 5538 5531 5526 5520 5514 5509 5503 5498 5492 5487 5482 5478 5474 5471 5468 5466 5465 5465 5466 5467 5469 5471 5474 5478 5482 5486 5491 5497 5503 5510 5518
5594 5591 5586 5584 5583 5576 5570 5564 5557 5551 5547 5541 5535 5530 5523 5517 5512 5506 5501 5495 5490 5485 5480 5476 5472 5468 5465 5463 5461 5460 5460 5460 5462 5464 5466 5469 5472 5477 5481 5487 5492 5498 5505 5512
5582 5580 5576 5579 5572 5567 5561 5556 5550 5543 5538 5532 5526 5521 5515 5509 5503 5497 5492 5487 5482 5477 5473 5469 5465 5462 5459 5458 5456 5455 5455 5455 5456 5458 5461 5464 5468 5472 5476 5482 5487 5494 5500 5506
5571 5567 5565 5568 5563 5556 5550 5547 5542 5534 5529 5523 5517 5513 5509 5501 5494 5489 5484 5479 5474 5469 5465 5462 5458 5455 5453 5452 5451 5450 5450 5450 5451 5453 5455 5459 5463 5467 5472 5477 5483 5488 5494 5501
5561 5556 5554 5557 5552 5545 5540 5537 5533 5525 5520 5514 5508 5503 5501 5494 5487 5481 5476 5470 5465 5462 5458 5454 5451 5449 5447 5446 5445 5444 5444 5445 5446 5448 5451 5454 5458 5462 5467 5472 5478 5483 5489 5496
5551 5545 5544 5545 5540 5534 5530 5527 5521 5515 5510 5505 5499 5494 5489 5484 5478 5472 5467 5462 5457 5453 5450 5447 5444 5441 5440 5439 5438 5438 5438 5439 5440 5443 5446 5449 5453 5457 5462 5467 5472 5478 5484 5490
5541 5536 5537 5534 5528 5524 5520 5515 5510 5505 5500 5495 5490 5484 5479 5474 5469 5463 5458 5453 5449 5445 5442 5439 5436 5434 5433 5432 5431 5431 5432 5434 5435 5437 5440 5444 5448 5452 5457 5462 5468 5473 5479 5486
5531 5530 5527 5522 5517 5513 5509 5504 5500 5495 5490 5485 5480 5475 5470 5465 5460 5454 5449 5445 5440 5437 5434 5431 5429 5427 5425 5425 5424 5424 5425 5427 5429 5431 5435 5438 5443 5447 5452 5457 5463 5468 5474 5480
5520 5520 5516 5511 5506 5502 5497 5493 5489 5485 5480 5475 5470 5465 5460 5456 5451 5445 5441 5436 5432 5428 5426 5424 5421 5419 5418 5417 5417 5417 5419 5421 5423 5426 5430 5434 5438 5442 5447 5452 5457 5463 5469 5474
5508 5508 5504 5500 5495 5491 5487 5482 5478 5475 5470 5465 5460 5456 5451 5446 5441 5436 5432 5427 5423 5420 5418 5415 5413 5412 5410 5410 5410 5410 5412 5414 5417 5420 5424 5428 5432 5437 5441 5447 5452 5457 5463 5469
5497 5496 5490 5489 5485 5481 5476 5473 5469 5465 5461 5456 5450 5446 5441 5436 5431 5427 5422 5419 5415 5412 5410 5407 5405 5404 5403 5402 5403 5404 5406 5408 5411 5415 5419 5423 5427 5432 5436 5441 5446 5452 5458 5464
5485 5482 5478 5476 5474 5470 5466 5462 5458 5454 5450 5446 5441 5436 5431 5426 5422 5417 5413 5409 5406 5403 5401 5399 5397 5397 5396 5395 5396 5398 5400 5403 5406 5410 5414 5418 5422 5427 5431 5436 5440 5446 5452 5459
5473 5470 5467 5466 5463 5459 5456 5452 5448 5444 5440 5435 5431 5426 5421 5416 5412 5408 5404 5400 5397 5395 5393 5391 5390 5389 5389 5389 5391 5393 5395 5398 5402 5406 5409 5414 5417 5421 5426 5431 5436 5442 5447 5454
5462 5459 5457 5455 5452 5449 5445 5442 5438 5434 5430 5425 5421 5416 5412 5407 5403 5399 5395 5392 5389 5387 5385 5384 5383 5382 5382 5383 5385 5388 5391 5394 5397 5401 5405 5409 5413 5417 5421 5426 5431 5437 5442 5449
5451 5448 5446 5444 5441 5438 5435 5432 5428 5424 5420 5416 5412 5407 5403 5399 5395 5391 5387 5384 5382 5380 5378 5377 5377 5376 5377 5378 5380 5383 5386 5389 5392 5396 5400 5404 5408 5412 5416 5421 5426 5432 5438 5444
5440 5438 5436 5434 5431 5428 5425 5422 5418 5415 5411 5407 5403 5399 5395 5391 5387 5384 5381 5378 5375 5373 5372 5371 5371 5371 5372 5373 5375 5378 5381 5384 5387 5391 5395 5399 5403 5407 5411 5416 5421 5426 5432 5438
5429 5428 5426 5424 5421 5418 5416 5412 5409 5405 5402 5398 5394 5390 5387 5383 5380 5377 5374 5371 5369 5368 5366 5366 5366 5367 5367 5369 5371 5373 5376 5379 5382 5386 5390 5393 5397 5401 5406 5411 5416 5422 5428 5433
5419 5418 5416 5414 5411 5409 5406 5403 5400 5397 5393 5390 5386 5383 5379 5376 5373 5370 5368 5365 5364 5362 5361 5361 5361 5362 5363 5364 5366 5369 5372 5375 5378 5381 5384 5388 5392 5396 5401 5406 5412 5417 5423 5429
5409 5408 5406 5404 5402 5400 5397 5394 5391 5388 5385 5381 5378 5375 5372 5368 5366 5363 5361 5359 5358 5357 5356 5356 5357 5358 5359 5360 5362 5364 5367 5370 5373 5376 5380 5383 5387 5392 5397 5402 5407 5413 5419 5426
5400 5399 5397 5395 5393 5391 5388 5385 5383 5380 5377 5373 5370 5367 5364 5362 5359 5357 5355 5354 5353 5351 5351 5352 5352 5353 5354 5356 5358 5360 5363 5366 5369 5372 5375 5379 5384 5388 5393 5398 5404 5409 5415 5422
5391 5390 5388 5386 5384 5382 5379 5376 5374 5371 5368 5365 5362 5359 5357 5355 5353 5351 5349 5348 5347 5346 5347 5347 5348 5349 5350 5352 5354 5356 5359 5361 5365 5368 5371 5375 5380 5385 5390 5395 5401 5406 5412 5418
5383 5381 5380 5378 5376 5373 5371 5368 5365 5362 5360 5357 5355 5352 5350 5348 5346 5345 5343 5342 5341 5341 5341 5342 5343 5345 5346 5348 5350 5352 5355 5358 5361 5365 5369 5373 5377 5382 5387 5393 5398 5404 5409 5415
5374 5372 5371 5369 5367 5365 5362 5359 5356 5354 5351 5349 5347 5345 5343 5341 5340 5338 5337 5336 5336 5336 5337 5338 5339 5340 5342 5344 5346 5348 5351 5355 5358 5362 5366 5370 5375 5380 5385 5390 5396 5401 5407 5412
5365 5363 5362 5360 5358 5355 5353 5350 5348 5346 5343 5341 5340 5338 5336 5334 5333 5332 5331 5331 5331 5332 5333 5334 5335 5336 5338 5340 5343 5345 5348 5352 5356 5360 5364 5368 5373 5378 5383 5388 5393 5399 5405 5410
5356 5355 5353 5351 5349 5346 5344 5342 5340 5338 5336 5334 5332 5331 5329 5328 5327 5326 5326 5326 5326 5327 5328 5329 5331 5332 5334 5337 5339 5343 5346 5350 5354 5358 5363 5367 5372 5377 5381 5386 5391 5397 5402 5408
5347 5346 5344 5342 5340 5337 5335 5333 5332 5330 5328 5327 5325 5324 5322 5321 5320 5320 5320 5321 5322 5323 5324 5325 5327 5329 5331 5334 5337 5340 5344 5348 5353 5357 5361 5366 5370 5375 5380 5385 5390 5395 5401 5406